Regional Weather Roundup
Issued by NWS

Home | Current Version | Previous Version | Text Only | Print | Product List | Glossary Off
Versions: 1 2 3 4 5 6 7 8 9 10 11 12 13 14 15 16 17 18 19 20 21 22 23 24 25 26 27 28 29 30 31 32 33 34 35 36 37 38 39 40 41 42 43 44 45 46 47 48 49 50

004
ASUS45 KBOI 041210
RWRID

IDAHO REGIONAL WEATHER ROUNDUP
NATIONAL WEATHER SERVICE BOISE ID
600 AM MDT WED MAY 04 2016

NOTE: "FAIR" INDICATES FEW OR NO CLOUDS BELOW 12000 FEET
WITH NO SIGNIFICANT WEATHER AND/OR OBSTRUCTIONS TO VISIBILITY

IDZ012-014-041300-
SOUTHWEST IDAHO


CITY           SKY/WX    TMP DP  RH WIND       PRES   REMARKS
BOISE          MOCLDY    62  33  33 SE9       29.97S
CALDWELL       MOCLDY    57  37  47 E3        29.97S
MOUNTAIN HOME  MOCLDY    53  33  46 SE15      30.00F
$$

IDZ016-017-041300-
SOUTHCENTRAL IDAHO


CITY           SKY/WX    TMP DP  RH WIND       PRES   REMARKS
BURLEY         PTCLDY    41  35  79 CALM      30.08F
JEROME         PTCLDY    46  34  62 NE17      30.08S
TWIN FALLS     PTCLDY    57  29  34 S10       30.06S
$$

IDZ019>023-041300-
SOUTHEAST IDAHO


CITY           SKY/WX    TMP DP  RH WIND       PRES   REMARKS
IDAHO FALLS    CLEAR     38  31  76 N3        30.16F
POCATELLO      CLOUDY    40  36  86 NW3       30.14F
REXBURG        CLEAR     38  31  76 NE5       30.18R WCI  34
$$

IDZ006-010-011-018-031-032-041300-
CENTRAL IDAHO MOUNTAINS


CITY           SKY/WX    TMP DP  RH WIND       PRES   REMARKS
MCCALL         PTCLDY    38  34  85 CALM      30.09F
HAILEY         CLEAR     41  32  70 NW8       30.20S
STANLEY          N/A     29  24  82 CALM      30.23S
SALMON         CLOUDY    37  30  75 SE3       30.12S
CHALLIS        CLEAR     40  26  57 CALM      30.17R
$$

IDZ002-004-006-007-026-041300-
NORTHERN IDAHO


CITY           SKY/WX    TMP DP  RH WIND       PRES   REMARKS
LEWISTON       MOCLDY    58  44  60 CALM      29.99S
LOWELL           N/A     49  46  90 CALM      30.05R
COEUR D`ALENE  MOCLDY    57  43  58 SE12      29.96S
MULLAN PASS    MOCLDY    52  29  41 NW5       30.11F
$$




USA.gov is the U.S. government's official web portal to all federal, state and local government web resources and services.